Home > Time Zones > World Clock > Weather > Spain > Jaén > Past weeks

Flag for Spain Weather past 2 weeks in Jaén, Spain

Now
81 °F

Passing clouds.


Feels Like: 79 °F
Forecast: 44 / 80 °F
Wind: 13 mph from Northwest

Location: Granada / Aeropuerto

Current Time: Mar 29, 2015 at 7:18:56 PM

Latest Report: Mar 29, 2015 at 6:30 PM


Visibility: N/A

Pressure: 30.24 "Hg

Humidity: 16%

Dew point: 30 °F

Location of JaénLocation

Historic Weather in Jaén — Graph

°F

Jaén temperature yesterday

Maximum temperature yesterday: 81 °F (at 2:30 PM)
Minimum temperature yesterday: 45 °F (at 6:00 AM)
Average temperature yesterday: 66 °F

Past Weeks' High & Low Weather Summary

 TemperatureHumidityPressure
High81 °F (Mar 28, 2:30 PM)100% (Mar 16, 7:30 AM)30.39 "Hg (Mar 16, 7:30 AM)
Low30 °F (Mar 26, 6:00 AM)16% (Mar 29, 5:30 PM)29.53 "Hg (Mar 24, 6:00 AM)
Average53 °F68%29.93 "Hg
* Reported Mar 14 5:00 PM — Mar 29 6:00 PM, Jaén, Weather by CustomWeather, © 2015

Note: Actual official high and low records may vary slightly from our data, if they occured in-between our weather recording intervals... More about our weather records

Advertising

Jaén weather history for previous 24 hours

 ConditionsComfort  
Time TempWeatherWind HumidityBarometerVisibility
6:00 PM
Sun, Mar 29
81 °FPassing clouds.10 mph28%30.24 "HgN/A
5:30 PM81 °FPassing clouds.13 mph16%30.21 "HgN/A
5:00 PM81 °FPassing clouds.9 mph24%30.24 "HgN/A
4:30 PM81 °FPassing clouds.10 mph28%30.24 "HgN/A
4:00 PM81 °FPassing clouds.9 mph26%30.24 "HgN/A
3:30 PM81 °FSunny.5 mph28%30.27 "Hg10 mi
3:00 PM81 °FPassing clouds.6 mph30%30.27 "HgN/A
2:30 PM79 °FSunny.2 mph28%30.30 "Hg10 mi
2:00 PM75 °FSunny.2 mph39%30.30 "Hg10 mi
1:30 PM75 °FSunny.No wind39%30.33 "Hg10 mi
1:00 PM70 °FSunny.1 mph50%30.33 "Hg10 mi
12:30 PM68 °FSunny.1 mph49%30.33 "Hg10 mi
12:00 PM68 °FSunny.1 mph49%30.33 "Hg10 mi
11:30 AM64 °FSunny.No wind56%30.33 "Hg10 mi
11:00 AM61 °FSunny.No wind63%30.33 "Hg10 mi
10:30 AM55 °FSunny.No wind77%30.33 "Hg10 mi
10:00 AM52 °FSunny.No wind82%30.33 "Hg10 mi
9:30 AM48 °FSunny.No wind87%30.33 "Hg10 mi
9:00 AM46 °FClear.No wind93%30.33 "Hg10 mi
8:30 AM43 °FClear.1 mph100%30.33 "Hg10 mi
8:00 AM43 °FClear.No wind100%30.30 "Hg10 mi
7:30 AM43 °FClear.No wind93%30.30 "Hg10 mi
7:00 AM45 °FClear.No wind93%30.30 "Hg10 mi
6:30 AM45 °FClear.No wind93%30.30 "Hg10 mi
6:00 AM45 °FClear.No wind93%30.33 "Hg10 mi
11:00 PM
Sat, Mar 28
57 °FClear.No wind67%30.36 "Hg10 mi
10:30 PM59 °FPassing clouds.3 mph63%30.36 "HgN/A
10:00 PM61 °FClear.5 mph59%30.33 "Hg10 mi
9:30 PM61 °FClear.6 mph59%30.33 "Hg10 mi
9:00 PM63 °FClear.2 mph56%30.33 "Hg10 mi
8:30 PM66 °FClear.2 mph46%30.33 "Hg10 mi
8:00 PM68 °FClear.2 mph43%30.30 "Hg10 mi
7:30 PM72 °FPassing clouds.7 mph36%30.30 "HgN/A
7:00 PM73 °FPassing clouds.13 mph33%30.27 "HgN/A
Weather by CustomWeather, © 2015

See weather overviewHow to use our weather pages